TimeCDT,TemperatureF,Dew PointF,Humidity,Sea Level PressureIn,VisibilityMPH,Wind Direction,Wind SpeedMPH,Gust SpeedMPH,PrecipitationIn,Events,Conditions,WindDirDegrees,DateUTC
12:15 AM,66.2,62.6,88,29.80,10.0,NW,5.8,-,N/A,,Mostly Cloudy,310,2013-05-19 05:15:00
12:35 AM,64.4,62.6,94,29.73,10.0,NE,15.0,19.6,N/A,Rain,Light Rain,40,2013-05-19 05:35:00
1:15 AM,68.0,60.8,78,29.78,10.0,ESE,13.8,19.6,N/A,,Scattered Clouds,120,2013-05-19 06:15:00
1:35 AM,68.0,62.6,83,29.75,10.0,ESE,8.1,-,N/A,,Scattered Clouds,120,2013-05-19 06:35:00
1:55 AM,68.0,62.6,83,29.75,10.0,ESE,3.5,-,N/A,,Scattered Clouds,110,2013-05-19 06:55:00
2:15 AM,68.0,62.6,83,29.73,10.0,East,8.1,-,N/A,,Scattered Clouds,100,2013-05-19 07:15:00
2:35 AM,68.0,62.6,83,29.73,10.0,ESE,10.4,17.3,N/A,,Clear,120,2013-05-19 07:35:00
2:55 AM,68.0,62.6,83,29.73,10.0,SE,10.4,-,N/A,,Clear,130,2013-05-19 07:55:00
3:15 AM,66.2,64.4,94,29.73,10.0,SE,12.7,18.4,N/A,,Clear,130,2013-05-19 08:15:00
3:35 AM,68.0,64.4,88,29.72,10.0,SE,15.0,19.6,N/A,,Clear,140,2013-05-19 08:35:00
3:55 AM,68.0,66.2,94,29.71,10.0,SSE,15.0,19.6,N/A,,Clear,150,2013-05-19 08:55:00
4:15 AM,69.8,66.2,88,29.71,10.0,SSE,15.0,-,N/A,,Clear,150,2013-05-19 09:15:00
4:35 AM,69.8,66.2,88,29.71,10.0,SSE,17.3,-,N/A,,Clear,150,2013-05-19 09:35:00
4:55 AM,69.8,66.2,88,29.70,10.0,SSE,12.7,23.0,N/A,,Clear,160,2013-05-19 09:55:00
5:15 AM,69.8,68.0,94,29.70,10.0,SSE,17.3,20.7,N/A,,Clear,160,2013-05-19 10:15:00
5:35 AM,69.8,66.2,88,29.70,10.0,SSE,13.8,21.9,N/A,,Clear,160,2013-05-19 10:35:00
5:55 AM,69.8,66.2,88,29.70,10.0,South,15.0,20.7,N/A,,Clear,170,2013-05-19 10:55:00
6:15 AM,69.8,66.2,88,29.70,10.0,SSE,15.0,21.9,N/A,,Clear,160,2013-05-19 11:15:00
6:35 AM,69.8,66.2,88,29.70,10.0,SSE,12.7,20.7,N/A,,Clear,160,2013-05-19 11:35:00
7:15 AM,69.8,66.2,88,29.70,10.0,SSE,18.4,24.2,N/A,,Clear,160,2013-05-19 12:15:00
7:35 AM,69.8,66.2,88,29.70,10.0,SSE,17.3,23.0,N/A,,Clear,160,2013-05-19 12:35:00
7:55 AM,71.6,66.2,83,29.71,10.0,South,15.0,24.2,N/A,,Clear,170,2013-05-19 12:55:00
8:15 AM,71.6,68.0,88,29.71,10.0,South,18.4,23.0,N/A,,Clear,170,2013-05-19 13:15:00
8:35 AM,71.6,68.0,88,29.71,10.0,South,15.0,-,N/A,,Clear,170,2013-05-19 13:35:00
8:55 AM,73.4,68.0,83,29.72,10.0,South,18.4,24.2,N/A,,Clear,170,2013-05-19 13:55:00
9:15 AM,75.2,68.0,78,29.72,10.0,South,19.6,26.5,N/A,,Clear,170,2013-05-19 14:15:00
9:55 AM,77.0,68.0,74,29.72,10.0,South,19.6,25.3,N/A,,Scattered Clouds,170,2013-05-19 14:55:00
10:15 AM,77.0,68.0,74,29.72,10.0,South,19.6,27.6,N/A,,Scattered Clouds,180,2013-05-19 15:15:00
10:35 AM,77.0,69.8,78,29.71,10.0,South,19.6,29.9,N/A,,Scattered Clouds,180,2013-05-19 15:35:00
10:55 AM,78.8,69.8,74,29.71,10.0,South,19.6,24.2,N/A,,Scattered Clouds,190,2013-05-19 15:55:00
11:15 AM,78.8,69.8,74,29.71,10.0,South,23.0,28.8,N/A,,Scattered Clouds,180,2013-05-19 16:15:00
11:35 AM,78.8,69.8,74,29.71,10.0,South,20.7,31.1,N/A,,Mostly Cloudy,180,2013-05-19 16:35:00
11:55 AM,80.6,69.8,70,29.70,10.0,South,23.0,29.9,N/A,,Mostly Cloudy,170,2013-05-19 16:55:00
12:15 PM,80.6,69.8,70,29.70,10.0,South,18.4,29.9,N/A,,Scattered Clouds,170,2013-05-19 17:15:00
12:35 PM,80.6,69.8,70,29.69,10.0,SSE,21.9,31.1,N/A,,Scattered Clouds,160,2013-05-19 17:35:00
12:55 PM,80.6,69.8,70,29.69,10.0,South,24.2,34.5,N/A,,Mostly Cloudy,170,2013-05-19 17:55:00
1:15 PM,80.6,69.8,70,29.68,10.0,South,20.7,29.9,N/A,,Mostly Cloudy,180,2013-05-19 18:15:00
1:35 PM,82.4,71.6,70,29.68,10.0,South,19.6,27.6,N/A,,Scattered Clouds,180,2013-05-19 18:35:00
2:15 PM,84.2,71.6,66,29.67,10.0,South,23.0,32.2,N/A,,Scattered Clouds,180,2013-05-19 19:15:00
2:35 PM,84.2,71.6,66,29.66,10.0,SSE,24.2,32.2,N/A,,Scattered Clouds,160,2013-05-19 19:35:00
2:55 PM,84.2,71.6,66,29.65,10.0,South,20.7,31.1,N/A,,Clear,170,2013-05-19 19:55:00
3:15 PM,84.2,71.6,66,29.63,10.0,SSE,21.9,31.1,N/A,,Clear,160,2013-05-19 20:15:00
3:35 PM,84.2,71.6,66,29.60,10.0,SSE,28.8,39.1,N/A,,Clear,160,2013-05-19 20:35:00
3:55 PM,82.4,71.6,70,29.58,10.0,South,24.2,38.0,N/A,Thunderstorm,Thunderstorm,170,2013-05-19 20:55:00
4:15 PM,80.6,69.8,70,29.57,10.0,SSE,23.0,33.4,N/A,Thunderstorm,Thunderstorm,160,2013-05-19 21:15:00
4:35 PM,80.6,69.8,70,29.58,10.0,SSE,19.6,25.3,N/A,Rain-Thunderstorm,Light Thunderstorms and Rain,160,2013-05-19 21:35:00
4:55 PM,78.8,71.6,78,29.61,10.0,South,9.2,19.6,N/A,Rain-Thunderstorm,Thunderstorms and Rain,180,2013-05-19 21:55:00
5:15 PM,77.0,71.6,83,29.61,3.0,North,9.2,-,0.07,Rain-Thunderstorm,Thunderstorms and Rain,360,2013-05-19 22:15:00
5:35 PM,73.4,71.6,94,29.60,4.0,WSW,17.3,41.4,0.22,Rain-Thunderstorm,Light Thunderstorms and Rain,250,2013-05-19 22:35:00
5:55 PM,66.2,62.6,88,29.59,1.8,ESE,13.8,25.3,0.79,Rain-Thunderstorm,Light Thunderstorms and Rain,110,2013-05-19 22:55:00
6:15 PM,73.4,66.2,78,29.62,10.0,North,8.1,31.1,N/A,Rain-Thunderstorm,Light Thunderstorms and Rain,360,2013-05-19 23:15:00
6:35 PM,71.6,62.6,73,29.62,10.0,NE,9.2,-,N/A,Thunderstorm,Overcast,40,2013-05-19 23:35:00
6:55 PM,71.6,64.4,78,29.60,10.0,East,11.5,-,N/A,Thunderstorm,Mostly Cloudy,90,2013-05-19 23:55:00
7:15 PM,73.4,68.0,83,29.61,10.0,East,9.2,-,N/A,,Scattered Clouds,100,2013-05-20 00:15:00
7:35 PM,73.4,69.8,88,29.62,10.0,ESE,9.2,16.1,N/A,,Mostly Cloudy,120,2013-05-20 00:35:00
7:55 PM,77.0,71.6,83,29.63,10.0,ESE,10.4,-,N/A,,Mostly Cloudy,120,2013-05-20 00:55:00
8:15 PM,77.0,71.6,83,29.64,10.0,ESE,9.2,-,N/A,,Scattered Clouds,120,2013-05-20 01:15:00
8:35 PM,78.8,71.6,78,29.65,10.0,SSE,10.4,-,N/A,,Clear,150,2013-05-20 01:35:00
8:55 PM,78.8,71.6,78,29.65,10.0,SSE,10.4,-,N/A,,Clear,150,2013-05-20 01:55:00
9:15 PM,77.0,71.6,83,29.66,10.0,SSE,13.8,18.4,N/A,,Clear,160,2013-05-20 02:15:00
9:35 PM,77.0,71.6,83,29.66,10.0,SSE,12.7,18.4,N/A,,Clear,160,2013-05-20 02:35:00
9:55 PM,77.0,71.6,83,29.66,10.0,SSE,16.1,21.9,N/A,,Clear,160,2013-05-20 02:55:00
10:15 PM,77.0,69.8,78,29.66,10.0,SSE,19.6,23.0,N/A,,Clear,160,2013-05-20 03:15:00
10:35 PM,77.0,69.8,78,29.67,10.0,South,17.3,21.9,N/A,,Clear,170,2013-05-20 03:35:00
11:15 PM,77.0,69.8,78,29.68,10.0,South,17.3,24.2,N/A,,Clear,170,2013-05-20 04:15:00
11:35 PM,77.0,69.8,78,29.68,10.0,SSE,15.0,-,N/A,,Clear,160,2013-05-20 04:35:00
11:55 PM,77.0,69.8,78,29.68,10.0,South,12.7,20.7,N/A,,Clear,170,2013-05-20 04:55:00